| time (UTC) | temp F | wind direction | speed MPH | gust MPH | rain 1hr in | rain 24hr in | rain mn in | humidity % | barometer mb |
| 20260508151806 | 54 | 271 | 1.0 | 3.0 | 0.00 | 0.00 | 0.00 | 86 | 1025.8 |
| 20260508150807 | 54 | 251 | 1.0 | 2.0 | 0.00 | 0.00 | 0.00 | 86 | 1026.0 |
| 20260508150307 | 54 | 290 | 0.0 | 1.0 | 0.00 | 0.00 | 0.00 | 86 | 1026.0 |
| 20260508144807 | 54 | 245 | 1.0 | 2.0 | 0.00 | 0.00 | 0.00 | 85 | 1025.8 |
| 20260508144307 | 54 | 268 | 1.0 | 3.0 | 0.00 | 0.00 | 0.00 | 84 | 1025.9 |
| 20260508143807 | 54 | 267 | 1.0 | 2.0 | 0.00 | 0.00 | 0.00 | 84 | 1026.1 |
| 20260508143308 | 54 | 248 | 1.0 | 3.0 | 0.00 | 0.00 | 0.00 | 84 | 1025.9 |
| 20260508141806 | 55 | 244 | 1.0 | 3.0 | 0.00 | 0.00 | 0.00 | 84 | 1025.9 |
| 20260508141307 | 55 | 228 | 1.0 | 5.0 | 0.00 | 0.00 | 0.00 | 84 | 1025.9 |
| 20260508140807 | 55 | 268 | 2.0 | 6.0 | 0.00 | 0.00 | 0.00 | 84 | 1026.0 |
| 20260508135807 | 55 | 288 | 1.0 | 3.0 | 0.00 | 0.00 | 0.00 | 85 | 1025.8 |
| 20260508135308 | 55 | 225 | 1.0 | 5.0 | 0.00 | 0.00 | 0.00 | 85 | 1026.0 |
| 20260508134307 | 55 | 269 | 2.0 | 5.0 | 0.00 | 0.00 | 0.00 | 85 | 1026.0 |
| 20260508133806 | 55 | 266 | 2.0 | 5.0 | 0.00 | 0.00 | 0.00 | 84 | 1025.9 |
| 20260508132807 | 55 | 248 | 2.0 | 5.0 | 0.00 | 0.00 | 0.00 | 83 | 1026.0 |
| 20260508132307 | 55 | 270 | 2.0 | 6.0 | 0.00 | 0.00 | 0.00 | 83 | 1025.9 |
| 20260508131807 | 55 | 289 | 2.0 | 5.0 | 0.00 | 0.00 | 0.00 | 83 | 1026.0 |
| 20260508131308 | 55 | 232 | 1.0 | 7.0 | 0.00 | 0.00 | 0.00 | 82 | 1026.0 |
| 20260508130808 | 55 | 270 | 1.0 | 6.0 | 0.00 | 0.00 | 0.00 | 82 | 1025.8 |
| 20260508130307 | 55 | 250 | 2.0 | 7.0 | 0.00 | 0.00 | 0.00 | 82 | 1026.1 |
| 20260508125307 | 55 | 235 | 2.0 | 3.0 | 0.00 | 0.00 | 0.00 | 81 | 1026.0 |
| 20260508124307 | 55 | 225 | 2.0 | 5.0 | 0.00 | 0.00 | 0.00 | 81 | 1026.2 |
| 20260508123807 | 55 | 204 | 3.0 | 5.0 | 0.00 | 0.00 | 0.00 | 81 | 1026.1 |
| 20260508123308 | 55 | 265 | 1.0 | 6.0 | 0.00 | 0.00 | 0.00 | 81 | 1026.2 |
| 20260508122807 | 55 | 225 | 1.0 | 5.0 | 0.00 | 0.00 | 0.00 | 81 | 1026.3 |
| 20260508122308 | 55 | 227 | 2.0 | 5.0 | 0.00 | 0.00 | 0.00 | 81 | 1026.3 |
| 20260508120807 | 54 | 250 | 1.0 | 3.0 | 0.00 | 0.00 | 0.00 | 82 | 1026.3 |
| 20260508120307 | 54 | 248 | 1.0 | 5.0 | 0.00 | 0.00 | 0.00 | 83 | 1026.3 |
| 20260508115807 | 54 | 269 | 1.0 | 3.0 | 0.00 | 0.00 | 0.00 | 83 | 1026.2 |
| 20260508114307 | 54 | 222 | 1.0 | 7.0 | 0.00 | 0.00 | 0.00 | 84 | 1026.1 |
| 20260508113807 | 54 | 249 | 2.0 | 7.0 | 0.00 | 0.00 | 0.00 | 84 | 1026.0 |
| 20260508113307 | 54 | 248 | 2.0 | 3.0 | 0.00 | 0.00 | 0.00 | 84 | 1026.0 |
| 20260508112808 | 54 | 249 | 1.0 | 3.0 | 0.00 | 0.00 | 0.00 | 84 | 1026.2 |
| 20260508111807 | 54 | 248 | 1.0 | 2.0 | 0.00 | 0.00 | 0.00 | 83 | 1025.8 |
| 20260508111308 | 55 | 204 | 1.0 | 3.0 | 0.00 | 0.00 | 0.00 | 83 | 1025.9 |
| 20260508105807 | 55 | 271 | 1.0 | 5.0 | 0.00 | 0.00 | 0.00 | 82 | 1026.0 |
| 20260508105307 | 55 | 248 | 0.0 | 3.0 | 0.00 | 0.00 | 0.00 | 81 | 1025.8 |
| 20260508104807 | 55 | 268 | 1.0 | 3.0 | 0.00 | 0.00 | 0.00 | 81 | 1025.9 |
| 20260508104307 | 55 | 270 | 1.0 | 2.0 | 0.00 | 0.00 | 0.00 | 81 | 1026.0 |
| 20260508103808 | 56 | 291 | 1.0 | 2.0 | 0.00 | 0.00 | 0.00 | 80 | 1025.8 |
| 20260508103307 | 56 | 267 | 0.0 | 1.0 | 0.00 | 0.00 | 0.00 | 80 | 1025.7 |
| 20260508102307 | 56 | 248 | 0.0 | 1.0 | 0.00 | 0.00 | 0.00 | 80 | 1025.9 |
| 20260508101806 | 56 | 248 | 0.0 | 1.0 | 0.00 | 0.00 | 0.00 | 79 | 1025.6 |
| 20260508101308 | 56 | 248 | 0.0 | 1.0 | 0.00 | 0.00 | 0.00 | 79 | 1025.6 |
| 20260508100308 | 57 | 245 | 1.0 | 2.0 | 0.00 | 0.00 | 0.00 | 79 | 1025.4 |
| 20260508095807 | 56 | 204 | 1.0 | 3.0 | 0.00 | 0.00 | 0.00 | 79 | 1025.4 |
| 20260508095307 | 56 | 246 | 1.0 | 2.0 | 0.00 | 0.00 | 0.00 | 79 | 1025.4 |
| 20260508094806 | 57 | 225 | 1.0 | 2.0 | 0.00 | 0.00 | 0.00 | 79 | 1025.5 |
| 20260508094307 | 57 | 219 | 2.0 | 3.0 | 0.00 | 0.00 | 0.00 | 78 | 1025.5 |
| 20260508093808 | 57 | 71 | 1.0 | 6.0 | 0.00 | 0.00 | 0.00 | 79 | 1025.4 |
| 20260508093307 | 57 | 159 | 2.0 | 6.0 | 0.00 | 0.00 | 0.00 | 78 | 1025.4 |
| 20260508092807 | 57 | 227 | 2.0 | 5.0 | 0.00 | 0.00 | 0.00 | 79 | 1025.3 |
| 20260508092313 | 57 | 250 | 3.0 | 6.0 | 0.00 | 0.00 | 0.00 | 79 | 1025.3 |
| 20260508091807 | 57 | 197 | 2.0 | 6.0 | 0.00 | 0.00 | 0.00 | 78 | 1025.3 |
| 20260508091307 | 57 | 163 | 2.0 | 6.0 | 0.00 | 0.00 | 0.00 | 78 | 1025.4 |
| 20260508090807 | 57 | 225 | 2.0 | 7.0 | 0.00 | 0.00 | 0.00 | 78 | 1025.0 |
| 20260508090307 | 58 | 199 | 2.0 | 8.0 | 0.00 | 0.00 | 0.00 | 79 | 1025.0 |
| 20260508085808 | 58 | 225 | 2.0 | 8.0 | 0.00 | 0.00 | 0.00 | 78 | 1025.0 |
| 20260508084807 | 58 | 243 | 5.0 | 7.0 | 0.00 | 0.00 | 0.00 | 78 | 1025.1 |
| 20260508084307 | 58 | 179 | 2.0 | 6.0 | 0.00 | 0.00 | 0.00 | 78 | 1024.9 |
| 20260508083807 | 58 | 117 | 3.0 | 6.0 | 0.00 | 0.00 | 0.00 | 78 | 1024.7 |
| 20260508083307 | 58 | 131 | 2.0 | 5.0 | 0.00 | 0.00 | 0.00 | 78 | 1024.9 |
| 20260508082807 | 58 | 158 | 3.0 | 6.0 | 0.00 | 0.00 | 0.00 | 78 | 1024.8 |
| 20260508082307 | 58 | 180 | 3.0 | 7.0 | 0.00 | 0.00 | 0.00 | 78 | 1024.7 |
| 20260508081808 | 58 | 204 | 3.0 | 6.0 | 0.00 | 0.00 | 0.00 | 77 | 1024.5 |
| 20260508081308 | 58 | 225 | 2.0 | 5.0 | 0.00 | 0.00 | 0.00 | 77 | 1024.8 |
| 20260508080807 | 58 | 202 | 1.0 | 5.0 | 0.00 | 0.00 | 0.00 | 77 | 1024.6 |
| 20260508075808 | 58 | 220 | 3.0 | 5.0 | 0.00 | 0.00 | 0.00 | 76 | 1024.4 |
| 20260508075309 | 58 | 117 | 1.0 | 6.0 | 0.00 | 0.00 | 0.00 | 76 | 1024.5 |
| 20260508074807 | 58 | 228 | 3.0 | 6.0 | 0.00 | 0.00 | 0.00 | 77 | 1024.4 |
| 20260508074307 | 58 | 179 | 2.0 | 5.0 | 0.00 | 0.00 | 0.00 | 77 | 1024.3 |
| 20260508073807 | 58 | 179 | 2.0 | 5.0 | 0.00 | 0.00 | 0.00 | 76 | 1024.2 |
| 20260508072806 | 58 | 223 | 3.0 | 6.0 | 0.00 | 0.00 | 0.00 | 75 | 1024.1 |
| 20260508071806 | 58 | 157 | 2.0 | 6.0 | 0.00 | 0.00 | 0.00 | 74 | 1023.9 |
| 20260508071308 | 58 | 201 | 3.0 | 5.0 | 0.00 | 0.00 | 0.00 | 75 | 1023.9 |
| 20260508070807 | 59 | 159 | 2.0 | 6.0 | 0.00 | 0.00 | 0.00 | 75 | 1024.0 |
| 20260508070306 | 59 | 199 | 2.0 | 6.0 | 0.00 | 0.00 | 0.00 | 74 | 1023.9 |
| 20260508065807 | 59 | 140 | 3.0 | 6.0 | 0.00 | 0.00 | 0.00 | 74 | 1023.9 |
| 20260508065307 | 59 | 180 | 1.0 | 3.0 | 0.00 | 0.00 | 0.00 | 73 | 1023.9 |
| 20260508064807 | 59 | 200 | 1.0 | 6.0 | 0.00 | 0.00 | 0.00 | 73 | 1023.8 |
| 20260508064307 | 59 | 247 | 2.0 | 8.0 | 0.00 | 0.00 | 0.00 | 73 | 1023.7 |
| 20260508063307 | 59 | 180 | 3.0 | 8.0 | 0.00 | 0.00 | 0.00 | 73 | 1023.6 |
| 20260508062807 | 59 | 200 | 2.0 | 7.0 | 0.00 | 0.00 | 0.00 | 73 | 1023.5 |
| 20260508061806 | 60 | 162 | 4.0 | 10.0 | 0.00 | 0.00 | 0.00 | 72 | 1023.7 |
| 20260508061307 | 60 | 141 | 2.0 | 8.0 | 0.00 | 0.00 | 0.00 | 72 | 1023.4 |
| 20260508060807 | 60 | 140 | 3.0 | 8.0 | 0.00 | 0.00 | 0.00 | 72 | 1023.5 |
| 20260508060308 | 60 | 212 | 3.0 | 9.0 | 0.00 | 0.00 | 0.00 | 72 | 1023.6 |
| 20260508054308 | 60 | 178 | 3.0 | 6.0 | 0.00 | 0.00 | 0.00 | 70 | 1023.4 |
| 20260508053807 | 60 | 158 | 3.0 | 12.0 | 0.00 | 0.00 | 0.00 | 69 | 1023.3 |
| 20260508052807 | 60 | 161 | 3.0 | 7.0 | 0.00 | 0.00 | 0.00 | 72 | 1023.5 |
| 20260508052307 | 60 | 158 | 4.0 | 9.0 | 0.00 | 0.00 | 0.00 | 71 | 1023.5 |
| 20260508051806 | 61 | 112 | 5.0 | 13.0 | 0.00 | 0.00 | 0.00 | 70 | 1023.4 |
| 20260508051307 | 61 | 112 | 6.0 | 13.0 | 0.00 | 0.00 | 0.00 | 71 | 1023.3 |
| 20260508050808 | 60 | 139 | 5.0 | 8.0 | 0.00 | 0.00 | 0.00 | 71 | 1023.2 |
| 20260508050307 | 60 | 135 | 6.0 | 12.0 | 0.00 | 0.00 | 0.00 | 71 | 1023.3 |
| 20260508045807 | 61 | 138 | 6.0 | 9.0 | 0.00 | 0.00 | 0.00 | 70 | 1023.2 |
| 20260508045307 | 61 | 137 | 5.0 | 12.0 | 0.00 | 0.00 | 0.00 | 69 | 1023.1 |
| 20260508044807 | 61 | 228 | 4.0 | 9.0 | 0.00 | 0.00 | 0.00 | 69 | 1023.1 |
| 20260508044308 | 61 | 161 | 5.0 | 9.0 | 0.00 | 0.00 | 0.00 | 69 | 1023.2 |
| 20260508043807 | 61 | 137 | 3.0 | 7.0 | 0.00 | 0.00 | 0.00 | 69 | 1023.2 |
| 20260508043307 | 61 | 136 | 3.0 | 9.0 | 0.00 | 0.00 | 0.00 | 70 | 1023.1 |
| 20260508042807 | 61 | 137 | 4.0 | 10.0 | 0.00 | 0.01 | 0.00 | 69 | 1023.1 |
| 20260508041806 | 61 | 222 | 3.0 | 8.0 | 0.00 | 0.02 | 0.00 | 69 | 1022.9 |
| 20260508041308 | 61 | 222 | 6.0 | 9.0 | 0.00 | 0.04 | 0.00 | 67 | 1022.9 |
| 20260508040307 | 61 | 246 | 3.0 | 9.0 | 0.00 | 0.05 | 0.00 | 68 | 1022.9 |
| 20260508035307 | 61 | 225 | 4.0 | 8.0 | 0.00 | 0.05 | 0.00 | 70 | 1023.0 |
| 20260508034807 | 61 | 269 | 6.0 | 13.0 | 0.00 | 0.06 | 0.00 | 70 | 1022.9 |
| 20260508034307 | 61 | 268 | 5.0 | 10.0 | 0.00 | 0.06 | 0.00 | 70 | 1023.0 |
| 20260508033807 | 62 | 154 | 5.0 | 10.0 | 0.00 | 0.06 | 0.00 | 69 | 1022.9 |
| 20260508033307 | 62 | 137 | 4.0 | 10.0 | 0.00 | 0.06 | 0.00 | 69 | 1022.9 |
| 20260508032807 | 61 | 93 | 5.0 | 10.0 | 0.00 | 0.07 | 0.00 | 70 | 1023.0 |
| 20260508032307 | 61 | 180 | 4.0 | 10.0 | 0.00 | 0.09 | 0.00 | 70 | 1022.8 |
| 20260508031307 | 61 | 178 | 3.0 | 8.0 | 0.00 | 0.09 | 0.00 | 69 | 1023.2 |
| 20260508030807 | 62 | 249 | 3.0 | 12.0 | 0.00 | 0.09 | 0.00 | 68 | 1023.1 |
| 20260508030307 | 63 | 268 | 5.0 | 9.0 | 0.00 | 0.09 | 0.00 | 63 | 1023.2 |
| 20260508025807 | 63 | 267 | 5.0 | 10.0 | 0.00 | 0.09 | 0.00 | 61 | 1023.2 |
| 20260508025308 | 62 | 247 | 3.0 | 8.0 | 0.00 | 0.09 | 0.00 | 63 | 1023.4 |
| 20260508024306 | 62 | 180 | 4.0 | 13.0 | 0.00 | 0.10 | 0.00 | 64 | 1023.1 |
| 20260508023807 | 62 | 182 | 5.0 | 9.0 | 0.00 | 0.10 | 0.00 | 65 | 1023.2 |
| 20260508023306 | 62 | 246 | 4.0 | 9.0 | 0.00 | 0.10 | 0.00 | 67 | 1023.3 |
| 20260508022807 | 62 | 222 | 2.0 | 7.0 | 0.00 | 0.10 | 0.00 | 69 | 1023.5 |
| 20260508021806 | 61 | 269 | 6.0 | 12.0 | 0.00 | 0.10 | 0.00 | 69 | 1023.7 |
| 20260508021307 | 61 | 249 | 5.0 | 12.0 | 0.00 | 0.10 | 0.00 | 70 | 1023.9 |
| 20260508020807 | 62 | 336 | 3.0 | 8.0 | 0.00 | 0.10 | 0.00 | 69 | 1023.8 |
| 20260508020306 | 62 | 205 | 5.0 | 12.0 | 0.00 | 0.11 | 0.00 | 68 | 1023.7 |
| 20260508015807 | 61 | 225 | 4.0 | 8.0 | 0.00 | 0.12 | 0.00 | 69 | 1023.5 |
| 20260508015307 | 61 | 270 | 5.0 | 8.0 | 0.00 | 0.13 | 0.00 | 71 | 1023.6 |
| 20260508014807 | 61 | 246 | 3.0 | 12.0 | 0.00 | 0.13 | 0.00 | 72 | 1023.5 |
| 20260508014307 | 60 | 246 | 6.0 | 12.0 | 0.00 | 0.13 | 0.00 | 72 | 1023.6 |
| 20260508013807 | 60 | 228 | 5.0 | 15.0 | 0.00 | 0.13 | 0.00 | 72 | 1023.8 |
| 20260508013307 | 61 | 226 | 5.0 | 13.0 | 0.00 | 0.13 | 0.00 | 73 | 1023.8 |
| 20260508012808 | 60 | 269 | 3.0 | 9.0 | 0.00 | 0.13 | 0.00 | 76 | 1023.7 |
| 20260508012308 | 59 | 246 | 6.0 | 9.0 | 0.00 | 0.13 | 0.00 | 77 | 1023.8 |
| 20260508011807 | 58 | 270 | 4.0 | 13.0 | 0.00 | 0.14 | 0.00 | 79 | 1023.8 |
| 20260508011307 | 59 | 201 | 5.0 | 8.0 | 0.00 | 0.15 | 0.00 | 79 | 1023.8 |
| 20260508010808 | 58 | 246 | 3.0 | 9.0 | 0.00 | 0.15 | 0.00 | 80 | 1023.9 |
| 20260508010307 | 58 | 224 | 4.0 | 10.0 | 0.00 | 0.15 | 0.00 | 82 | 1023.8 |
| 20260508005806 | 58 | 242 | 3.0 | 10.0 | 0.00 | 0.15 | 0.00 | 83 | 1023.6 |
| 20260508005307 | 58 | 200 | 5.0 | 12.0 | 0.00 | 0.15 | 0.00 | 82 | 1023.7 |
| 20260508003808 | 59 | 202 | 6.0 | 13.0 | 0.00 | 0.15 | 0.00 | 79 | 1023.6 |
| 20260508003307 | 59 | 200 | 5.0 | 15.0 | 0.00 | 0.15 | 0.00 | 74 | 1023.5 |
| 20260508002807 | 59 | 183 | 5.0 | 14.0 | 0.00 | 0.15 | 0.00 | 73 | 1023.4 |
| 20260508001807 | 59 | 264 | 7.0 | 14.0 | 0.00 | 0.15 | 0.00 | 74 | 1023.4 |
| 20260508001306 | 59 | 199 | 6.0 | 12.0 | 0.00 | 0.15 | 0.00 | 73 | 1023.4 |
| 20260508000807 | 59 | 249 | 5.0 | 12.0 | 0.00 | 0.15 | 0.00 | 74 | 1023.3 |
| 20260508000307 | 59 | 256 | 5.0 | 12.0 | 0.00 | 0.15 | 0.00 | 74 | 1023.2 |
| 20260507235808 | 60 | 227 | 4.0 | 12.0 | 0.00 | 0.15 | 0.00 | 73 | 1023.1 |
| 20260507234807 | 60 | 248 | 6.0 | 13.0 | 0.00 | 0.15 | 0.00 | 73 | 1023.0 |
| 20260507234307 | 60 | 267 | 4.0 | 12.0 | 0.00 | 0.15 | 0.00 | 72 | 1023.0 |
| 20260507233807 | 60 | 290 | 5.0 | 9.0 | 0.00 | 0.15 | 0.00 | 73 | 1022.9 |
| 20260507233307 | 60 | 227 | 4.0 | 8.0 | 0.00 | 0.15 | 0.00 | 73 | 1022.8 |
| 20260507232807 | 59 | 221 | 4.0 | 9.0 | 0.00 | 0.15 | 0.00 | 74 | 1022.8 |
| 20260507232308 | 59 | 270 | 3.0 | 12.0 | 0.00 | 0.15 | 0.00 | 75 | 1022.7 |
| 20260507231807 | 59 | 226 | 5.0 | 14.0 | 0.00 | 0.15 | 0.00 | 76 | 1022.7 |
| 20260507231307 | 59 | 202 | 6.0 | 14.0 | 0.00 | 0.15 | 0.00 | 76 | 1023.0 |
| 20260507230807 | 58 | 251 | 3.0 | 10.0 | 0.00 | 0.15 | 0.00 | 77 | 1022.7 |
| 20260507230307 | 58 | 274 | 5.0 | 12.0 | 0.00 | 0.15 | 0.00 | 77 | 1022.7 |
| 20260507225308 | 57 | 248 | 5.0 | 10.0 | 0.00 | 0.15 | 0.09 | 79 | 1022.8 |
| 20260507224807 | 57 | 249 | 5.0 | 10.0 | 0.00 | 0.16 | 0.09 | 80 | 1022.8 |
| 20260507224307 | 57 | 291 | 2.0 | 15.0 | 0.00 | 0.18 | 0.09 | 80 | 1022.9 |
| 20260507223807 | 58 | 289 | 5.0 | 13.0 | 0.00 | 0.20 | 0.09 | 78 | 1022.8 |
| 20260507222806 | 57 | 228 | 3.0 | 12.0 | 0.00 | 0.21 | 0.09 | 80 | 1022.6 |
| 20260507222308 | 56 | 248 | 3.0 | 12.0 | 0.00 | 0.21 | 0.09 | 81 | 1022.8 |
| 20260507221807 | 56 | 250 | 3.0 | 7.0 | 0.00 | 0.21 | 0.09 | 82 | 1022.6 |
| 20260507221307 | 56 | 291 | 3.0 | 8.0 | 0.00 | 0.21 | 0.09 | 83 | 1022.5 |
| 20260507220807 | 56 | 200 | 2.0 | 8.0 | 0.00 | 0.21 | 0.09 | 84 | 1022.5 |
| 20260507220307 | 55 | 230 | 3.0 | 9.0 | 0.00 | 0.21 | 0.09 | 85 | 1022.5 |
| 20260507215807 | 55 | 289 | 3.0 | 7.0 | 0.00 | 0.21 | 0.09 | 85 | 1022.3 |
| 20260507215307 | 55 | 292 | 3.0 | 8.0 | 0.00 | 0.21 | 0.09 | 86 | 1022.2 |
| 20260507214807 | 55 | 291 | 3.0 | 8.0 | 0.00 | 0.21 | 0.09 | 85 | 1022.2 |
| 20260507214307 | 55 | 291 | 1.0 | 6.0 | 0.00 | 0.21 | 0.09 | 85 | 1022.0 |
| 20260507213807 | 55 | 292 | 2.0 | 9.0 | 0.00 | 0.21 | 0.09 | 84 | 1022.0 |
| 20260507213307 | 55 | 200 | 2.0 | 7.0 | 0.00 | 0.21 | 0.09 | 84 | 1022.0 |
| 20260507212807 | 55 | 251 | 2.0 | 8.0 | 0.00 | 0.21 | 0.09 | 84 | 1021.8 |
| 20260507212308 | 55 | 187 | 3.0 | 5.0 | 0.00 | 0.21 | 0.09 | 84 | 1021.9 |
| 20260507211807 | 55 | 225 | 3.0 | 6.0 | 0.00 | 0.21 | 0.09 | 84 | 1021.8 |
| 20260507211307 | 55 | 243 | 2.0 | 7.0 | 0.00 | 0.21 | 0.09 | 83 | 1021.8 |
| 20260507210807 | 55 | 332 | 4.0 | 10.0 | 0.00 | 0.21 | 0.09 | 83 | 1021.7 |
| 20260507205807 | 55 | 249 | 4.0 | 10.0 | 0.00 | 0.21 | 0.09 | 84 | 1021.7 |
| 20260507205307 | 55 | 245 | 3.0 | 8.0 | 0.00 | 0.21 | 0.09 | 84 | 1021.5 |
| 20260507204807 | 55 | 248 | 3.0 | 10.0 | 0.00 | 0.21 | 0.09 | 84 | 1021.6 |
| 20260507204307 | 55 | 290 | 5.0 | 10.0 | 0.00 | 0.21 | 0.09 | 84 | 1021.7 |
| 20260507203807 | 56 | 241 | 3.0 | 9.0 | 0.00 | 0.21 | 0.09 | 84 | 1021.5 |
| 20260507203308 | 56 | 167 | 5.0 | 8.0 | 0.00 | 0.21 | 0.09 | 83 | 1021.7 |
| 20260507202807 | 56 | 288 | 4.0 | 10.0 | 0.00 | 0.21 | 0.09 | 83 | 1021.6 |
| 20260507202307 | 56 | 287 | 3.0 | 8.0 | 0.00 | 0.21 | 0.09 | 83 | 1021.7 |
| 20260507201806 | 56 | 48 | 4.0 | 10.0 | 0.00 | 0.21 | 0.09 | 82 | 1021.4 |
| 20260507201307 | 56 | 248 | 3.0 | 10.0 | 0.00 | 0.21 | 0.09 | 82 | 1021.3 |
| 20260507200806 | 56 | 312 | 4.0 | 10.0 | 0.00 | 0.21 | 0.09 | 82 | 1021.5 |
| 20260507200306 | 56 | 223 | 5.0 | 9.0 | 0.00 | 0.21 | 0.09 | 82 | 1021.3 |
| 20260507195807 | 56 | 222 | 4.0 | 8.0 | 0.00 | 0.21 | 0.09 | 82 | 1021.2 |
| 20260507195308 | 56 | 225 | 4.0 | 12.0 | 0.00 | 0.21 | 0.09 | 82 | 1021.4 |
| 20260507194808 | 56 | 250 | 4.0 | 8.0 | 0.00 | 0.21 | 0.09 | 82 | 1021.2 |
| 20260507194307 | 56 | 250 | 5.0 | 9.0 | 0.00 | 0.21 | 0.09 | 81 | 1021.1 |
| 20260507193807 | 56 | 270 | 4.0 | 12.0 | 0.00 | 0.21 | 0.09 | 81 | 1020.9 |
| 20260507193307 | 56 | 270 | 5.0 | 12.0 | 0.00 | 0.21 | 0.09 | 81 | 1021.0 |
| 20260507192307 | 56 | 309 | 5.0 | 14.0 | 0.00 | 0.21 | 0.09 | 81 | 1020.8 |
| 20260507191808 | 56 | 286 | 5.0 | 13.0 | 0.00 | 0.21 | 0.09 | 81 | 1020.8 |
| 20260507190807 | 56 | 180 | 7.0 | 14.0 | 0.00 | 0.21 | 0.09 | 81 | 1020.8 |
| 20260507190307 | 56 | 246 | 5.0 | 12.0 | 0.00 | 0.21 | 0.09 | 81 | 1020.8 |
| 20260507185808 | 56 | 262 | 5.0 | 12.0 | 0.00 | 0.21 | 0.09 | 81 | 1020.6 |
| 20260507185307 | 56 | 289 | 5.0 | 12.0 | 0.00 | 0.21 | 0.09 | 82 | 1020.6 |
| 20260507184807 | 56 | 222 | 6.0 | 13.0 | 0.00 | 0.21 | 0.09 | 82 | 1020.6 |
| 20260507184308 | 56 | 290 | 5.0 | 12.0 | 0.00 | 0.21 | 0.09 | 82 | 1020.6 |
| 20260507183807 | 56 | 245 | 4.0 | 8.0 | 0.00 | 0.21 | 0.09 | 82 | 1020.4 |
| 20260507182806 | 56 | 248 | 3.0 | 6.0 | 0.00 | 0.21 | 0.09 | 83 | 1020.5 |
| 20260507182307 | 56 | 291 | 3.0 | 7.0 | 0.00 | 0.21 | 0.09 | 84 | 1020.3 |
| 20260507180807 | 56 | 272 | 4.0 | 7.0 | 0.00 | 0.21 | 0.09 | 83 | 1020.0 |
| 20260507175807 | 56 | 227 | 3.0 | 9.0 | 0.00 | 0.21 | 0.09 | 83 | 1020.1 |
| 20260507175308 | 56 | 250 | 3.0 | 12.0 | 0.00 | 0.21 | 0.09 | 82 | 1020.1 |
| 20260507174807 | 56 | 310 | 4.0 | 12.0 | 0.00 | 0.21 | 0.09 | 82 | 1019.9 |
| 20260507174308 | 56 | 240 | 7.0 | 14.0 | 0.00 | 0.21 | 0.09 | 81 | 1020.1 |
| 20260507173808 | 56 | 165 | 4.0 | 9.0 | 0.00 | 0.21 | 0.09 | 82 | 1020.1 |
| 20260507173307 | 56 | 268 | 3.0 | 12.0 | 0.00 | 0.21 | 0.09 | 82 | 1020.0 |
| 20260507172808 | 56 | 199 | 3.0 | 9.0 | 0.00 | 0.21 | 0.09 | 82 | 1020.0 |
| 20260507171806 | 55 | 223 | 3.0 | 10.0 | 0.00 | 0.21 | 0.09 | 82 | 1019.9 |
| 20260507170807 | 55 | 250 | 3.0 | 8.0 | 0.00 | 0.21 | 0.09 | 82 | 1019.9 |
| 20260507170307 | 55 | 333 | 3.0 | 8.0 | 0.00 | 0.21 | 0.09 | 82 | 1019.9 |
| 20260507165307 | 55 | 250 | 3.0 | 10.0 | 0.00 | 0.21 | 0.09 | 83 | 1019.9 |
| 20260507164808 | 55 | 249 | 2.0 | 12.0 | 0.00 | 0.21 | 0.09 | 83 | 1019.9 |
| 20260507164307 | 55 | 270 | 5.0 | 12.0 | 0.00 | 0.21 | 0.09 | 83 | 1020.0 |
| 20260507163808 | 55 | 245 | 4.0 | 12.0 | 0.00 | 0.21 | 0.09 | 83 | 1020.0 |
| 20260507162807 | 55 | 270 | 5.0 | 9.0 | 0.00 | 0.21 | 0.09 | 82 | 1020.0 |
| 20260507162307 | 55 | 225 | 5.0 | 12.0 | 0.00 | 0.21 | 0.09 | 82 | 1019.9 |
| 20260507161807 | 55 | 0 | 5.0 | 12.0 | 0.00 | 0.21 | 0.09 | 81 | 1019.9 |
| 20260507161307 | 55 | 249 | 6.0 | 12.0 | 0.00 | 0.21 | 0.09 | 82 | 1020.0 |
| 20260507160808 | 55 | 203 | 3.0 | 10.0 | 0.00 | 0.21 | 0.09 | 82 | 1020.1 |
| 20260507160307 | 55 | 270 | 4.0 | 13.0 | 0.00 | 0.21 | 0.09 | 82 | 1019.9 |
| 20260507155807 | 55 | 270 | 3.0 | 8.0 | 0.00 | 0.21 | 0.09 | 82 | 1020.0 |
| 20260507154307 | 55 | 299 | 5.0 | 10.0 | 0.00 | 0.21 | 0.09 | 82 | 1020.4 |
| 20260507153807 | 54 | 229 | 3.0 | 10.0 | 0.00 | 0.21 | 0.09 | 82 | 1020.4 |
| 20260507152307 | 54 | 248 | 5.0 | 10.0 | 0.00 | 0.21 | 0.09 | 82 | 1020.5 |